Fallon, NV

9:51 PM PDT on August 25, 2016 (GMT -0700)
Fallon Naval Air Station

Weather History for KNFL - March, 2013

Change the Weather History Date:

Wednesday, March 20, 2013

  Actual Average Record
Temperature  
Mean Temperature 60 °F -  
Max Temperature 69 °F 59 °F 80 °F (2004)
Min Temperature 50 °F 27 °F 11 °F (1987)
Degree Days  
Heating Degree Days 6    
Growing Degree Days 10 (Base 50)    
Moisture  
Dew Point 30 °F    
Average Humidity 36    
Maximum Humidity 50    
Minimum Humidity 22    
Precipitation  
Precipitation 0.00 in - - ()
Sea Level Pressure  
Sea Level Pressure 29.87 in    
Wind  
Wind Speed 11 mph (West)    
Max Wind Speed 33 mph    
Max Gust Speed 40 mph    
Visibility 10 miles    
Events      
Averages and records for this station are not official NWS values.
T = Trace of Precipitation, MM = Missing Value Source: NWS Daily Summary

Daily Weather History Graph

Daily Weather History Graph

Search for Another Location

Airport or City:

Trip Planner

Search our weather history database for the weather conditions in past years. The results will help you decide how hot, cold, wet, or windy it might be!

Date:

Astronomy

Mar. 20, 2013 Rise Set
Actual Time 6:57 AM PDT 7:07 PM PDT
Civil Twilight 6:30 AM PDT 7:33 PM PDT
Nautical Twilight 5:59 AM PDT 8:05 PM PDT
Astronomical Twilight 5:27 AM PDT 8:37 PM PDT
Moon 12:48 PM PDT (3/20) 2:39 AM PDT (3/20)
Length of Visible Light 13h 03m
Length of Day
12h 09m
First Quarter, 60% of the Moon is Illuminated
Mar 20
First Quarter
Mar 27
Full
Apr 2
Last Quarter
Apr 10
New
Apr 18
First Quarter

Hourly Weather History & Observations

Time (PDT) Temp. Dew Point Humidity Pressure Visibility Wind Dir Wind Speed Gust Speed Precip Events Conditions
12:56 AM 54.0 °F 34.0 °F 47% 29.90 in 10.0 mi NNW 5.8 mph - N/A   Overcast
1:56 AM 51.1 °F 33.1 °F 50% 29.89 in 10.0 mi ESE 4.6 mph - N/A   Partly Cloudy
2:56 AM 55.0 °F 30.9 °F 40% 29.88 in 10.0 mi SSW 12.7 mph - N/A   Mostly Cloudy
3:56 AM 55.0 °F 30.0 °F 38% 29.88 in 10.0 mi WSW 11.5 mph - N/A   Overcast
4:56 AM 54.0 °F 28.9 °F 38% 29.88 in 10.0 mi West 11.5 mph - N/A   Overcast
5:56 AM 53.1 °F 30.0 °F 41% 29.88 in 10.0 mi WNW 6.9 mph - N/A   Mostly Cloudy
6:15 AM 53.6 °F 30.2 °F 41% 29.97 in 10.0 mi West 11.5 mph - N/A   Mostly Cloudy
6:56 AM 50.0 °F 30.0 °F 46% 29.89 in 10.0 mi West 8.1 mph - N/A   Mostly Cloudy
7:56 AM 52.0 °F 30.0 °F 43% 29.89 in 10.0 mi West 6.9 mph - N/A   Overcast
8:56 AM 55.9 °F 30.0 °F 37% 29.90 in 10.0 mi SSW 4.6 mph - N/A   Mostly Cloudy
9:56 AM 59.0 °F 28.9 °F 32% 29.90 in 10.0 mi WSW 4.6 mph - N/A   Mostly Cloudy
10:56 AM 61.0 °F 30.9 °F 32% 29.89 in 10.0 mi WSW 8.1 mph - N/A   Mostly Cloudy
11:56 AM 66.0 °F 30.9 °F 27% 29.87 in 10.0 mi WSW 16.1 mph 26.5 mph N/A   Mostly Cloudy
12:03 PM 64.4 °F 32.0 °F 30% 29.95 in 10.0 mi West 20.7 mph 28.8 mph N/A   Mostly Cloudy
12:56 PM 66.0 °F 33.1 °F 29% 29.86 in 10.0 mi West 8.1 mph 18.4 mph N/A   Mostly Cloudy
1:56 PM 69.1 °F 28.0 °F 22% 29.84 in 10.0 mi WSW 18.4 mph 31.1 mph N/A   Mostly Cloudy
2:56 PM 66.0 °F 30.0 °F 26% 29.83 in 10.0 mi West 29.9 mph 40.3 mph N/A   Mostly Cloudy
3:56 PM 66.0 °F 30.9 °F 27% 29.82 in 10.0 mi West 27.6 mph 38.0 mph N/A   Scattered Clouds
4:56 PM 64.0 °F 28.9 °F 27% 29.83 in 10.0 mi West 33.4 mph 39.1 mph N/A   Scattered Clouds
5:56 PM 62.1 °F 28.9 °F 29% 29.83 in 10.0 mi West 26.5 mph 32.2 mph N/A   Scattered Clouds
6:56 PM 57.9 °F 30.0 °F 35% 29.83 in 10.0 mi WNW 20.7 mph 26.5 mph N/A   Scattered Clouds
7:56 PM 55.0 °F 28.0 °F 35% 29.84 in 10.0 mi WNW 13.8 mph 18.4 mph N/A   Scattered Clouds
8:56 PM 52.0 °F 32.0 °F 47% 29.86 in 10.0 mi WNW 15.0 mph - N/A   Scattered Clouds
9:56 PM 52.0 °F 28.0 °F 40% 29.85 in 10.0 mi WSW 15.0 mph - N/A   Clear
10:56 PM 51.1 °F 28.0 °F 41% 29.86 in 10.0 mi West 11.5 mph - N/A   Partly Cloudy
11:56 PM 50.0 °F 30.0 °F 46% 29.88 in 10.0 mi WNW 11.5 mph - N/A   Clear